Weather History for Roseau, MN

Change the Weather History Date:

Wednesday, August 21, 2013

  Actual Average Record
Temperature  
Mean Temperature 68 °F -  
Max Temperature 80 °F 74 °F 91 °F (1971)
Min Temperature 55 °F 50 °F 32 °F (1967)
Cooling Degree Days 2    
Growing Degree Days 18 (Base 50)    
Moisture  
Dew Point 50 °F    
Average Humidity 57    
Maximum Humidity 88    
Minimum Humidity 24    
Precipitation  
Precipitation 0.00 in - - ()
Sea Level Pressure  
Sea Level Pressure 29.95 in    
Wind  
Wind Speed 8 mph (WNW)    
Max Wind Speed 15 mph    
Max Gust Speed 23 mph    
Visibility 10 miles    
Events      
Averages and records for this station are not official NWS values.
T = Trace of Precipitation, MM = Missing Value Source: NWS Daily Summary

Daily Weather History Graph

Daily Weather History Graph

Search for Another Location

Airport:

Trip Planner

Search our weather history database for the weather conditions in past years. The results will help you decide how hot, cold, wet, or windy it might be!

Date:

Astronomy

Aug. 21, 2013 Rise Set
Actual Time 6:24 AM CDT 8:26 PM CDT
Civil Twilight 5:50 AM CDT 9:00 PM CDT
Nautical Twilight 5:08 AM CDT 9:42 PM CDT
Astronomical Twilight 4:20 AM CDT 10:29 PM CDT
Moon 8:23 PM CDT (8/21) 7:14 AM CDT (8/21)
Length of Visible Light 15h 09m
Length of Day
14h 01m
Waxing Gibbous, 99% of the Moon is Illuminated
Aug 21
Waxing Gibbous
Aug 28
Last Quarter
Sep 5
New
Sep 12
First Quarter
Sep 19
Full

Hourly Weather History & Observations

Time (CDT) Temp. Dew Point Humidity Pressure Visibility Wind Dir Wind Speed Gust Speed Precip Events Conditions
12:14 AM 69.8 °F 59.0 °F 68% 29.74 in 10.0 mi North 11.5 mph 18.4 mph N/A   Clear
12:34 AM 68.0 °F 57.2 °F 68% 29.75 in 10.0 mi North 11.5 mph 16.1 mph N/A   Clear
12:54 AM 66.2 °F 57.2 °F 73% 29.76 in 10.0 mi NNW 8.1 mph - N/A   Clear
1:14 AM 64.4 °F 57.2 °F 77% 29.77 in 10.0 mi NNW 10.4 mph - N/A   Clear
1:34 AM 66.2 °F 57.2 °F 73% 29.79 in 10.0 mi NNW 5.8 mph - N/A   Mostly Cloudy
1:54 AM 64.4 °F 55.4 °F 73% 29.80 in 10.0 mi NW 3.5 mph - N/A   Scattered Clouds
2:14 AM 62.6 °F 55.4 °F 77% 29.81 in 10.0 mi NW 5.8 mph - N/A   Scattered Clouds
2:34 AM 62.6 °F 55.4 °F 77% 29.81 in 10.0 mi NW 9.2 mph - N/A   Clear
2:54 AM 62.6 °F 55.4 °F 77% 29.82 in 10.0 mi WNW 6.9 mph - N/A   Scattered Clouds
3:14 AM 60.8 °F 55.4 °F 82% 29.82 in 10.0 mi NW 9.2 mph - N/A   Scattered Clouds
3:34 AM 60.8 °F 53.6 °F 77% 29.82 in 10.0 mi NW 8.1 mph - N/A   Clear
3:54 AM 60.8 °F 53.6 °F 77% 29.83 in 10.0 mi NW 9.2 mph - N/A   Clear
4:14 AM 59.0 °F 53.6 °F 82% 29.84 in 10.0 mi NW 6.9 mph - N/A   Clear
4:34 AM 57.2 °F 51.8 °F 82% 29.84 in 10.0 mi NW 6.9 mph - N/A   Clear
4:54 AM 55.4 °F 51.8 °F 88% 29.85 in 10.0 mi WNW 6.9 mph - N/A   Clear
5:14 AM 57.2 °F 53.6 °F 88% 29.85 in 10.0 mi WNW 4.6 mph - N/A   Clear
5:34 AM 57.2 °F 51.8 °F 82% 29.86 in 10.0 mi WNW 4.6 mph - N/A   Clear
5:54 AM 57.2 °F 51.8 °F 82% 29.85 in 10.0 mi West 5.8 mph - N/A   Clear
6:14 AM 57.2 °F 51.8 °F 82% 29.87 in 10.0 mi WNW 5.8 mph - N/A   Clear
6:34 AM 57.2 °F 51.8 °F 82% 29.88 in 10.0 mi WNW 4.6 mph - N/A   Clear
6:54 AM 57.2 °F 51.8 °F 82% 29.90 in 10.0 mi West 4.6 mph - N/A   Clear
7:14 AM 57.2 °F 51.8 °F 82% 29.90 in 10.0 mi West 3.5 mph - N/A   Clear
7:34 AM 59.0 °F 53.6 °F 82% 29.91 in 10.0 mi Calm Calm - N/A   Clear
7:54 AM 60.8 °F 55.4 °F 82% 29.92 in 10.0 mi West 3.5 mph - N/A   Clear
8:14 AM 60.8 °F 55.4 °F 82% 29.94 in 10.0 mi West 3.5 mph - N/A   Clear
8:34 AM 62.6 °F 57.2 °F 82% 29.95 in 10.0 mi WNW 4.6 mph - N/A   Clear
8:54 AM 64.4 °F 57.2 °F 77% 29.95 in 10.0 mi WNW 3.5 mph - N/A   Clear
9:14 AM 66.2 °F 57.2 °F 73% 29.96 in 10.0 mi NW 4.6 mph - N/A   Clear
9:34 AM 69.8 °F 57.2 °F 64% 29.96 in 10.0 mi West 6.9 mph - N/A   Clear
9:54 AM 69.8 °F 57.2 °F 64% 29.97 in 10.0 mi Calm Calm - N/A   Clear
10:14 AM 71.6 °F 57.2 °F 60% 29.98 in 10.0 mi WNW 4.6 mph - N/A   Clear
10:34 AM 73.4 °F 55.4 °F 53% 29.99 in 10.0 mi NW 5.8 mph - N/A   Clear
10:54 AM 73.4 °F 53.6 °F 50% 29.99 in 10.0 mi WNW 8.1 mph - N/A   Clear
11:14 AM 75.2 °F 53.6 °F 47% 29.99 in 10.0 mi WNW 5.8 mph - N/A   Clear
11:34 AM 75.2 °F 48.2 °F 38% 29.99 in 10.0 mi WNW 10.4 mph - N/A   Clear
11:54 AM 77.0 °F 51.8 °F 41% 29.99 in 10.0 mi WNW 6.9 mph - N/A   Clear
12:14 PM 78.8 °F 48.2 °F 34% 30.00 in 10.0 mi WNW 9.2 mph - N/A   Clear
12:34 PM 78.8 °F 46.4 °F 32% 30.00 in 10.0 mi WNW 12.7 mph 23.0 mph N/A   Clear
12:54 PM 78.8 °F 46.4 °F 32% 30.00 in 10.0 mi WNW 12.7 mph 17.3 mph N/A   Clear
1:14 PM 78.8 °F 44.6 °F 30% 30.00 in 10.0 mi WNW 9.2 mph 18.4 mph N/A   Clear
1:34 PM 78.8 °F 44.6 °F 30% 29.99 in 10.0 mi WNW 10.4 mph - N/A   Clear
1:54 PM 80.6 °F 42.8 °F 26% 30.00 in 10.0 mi NW 13.8 mph 18.4 mph N/A   Clear
2:14 PM 80.6 °F 42.8 °F 26% 30.00 in 10.0 mi WNW 8.1 mph - N/A   Clear
2:34 PM 80.6 °F 42.8 °F 26% 30.00 in 10.0 mi NW 12.7 mph - N/A   Clear
2:54 PM 80.6 °F 42.8 °F 26% 30.00 in 10.0 mi NW 15.0 mph 19.6 mph N/A   Clear
3:14 PM 80.6 °F 41.0 °F 24% 30.00 in 10.0 mi WNW 13.8 mph 20.7 mph N/A   Clear
3:34 PM 78.8 °F 39.2 °F 24% 30.00 in 10.0 mi WNW 11.5 mph 19.6 mph N/A   Clear
3:54 PM 80.6 °F 41.0 °F 24% 30.00 in 10.0 mi NW 13.8 mph 18.4 mph N/A   Clear
4:14 PM 78.8 °F 42.8 °F 28% 30.01 in 10.0 mi WNW 10.4 mph - N/A   Clear
4:34 PM 78.8 °F 42.8 °F 28% 30.01 in 10.0 mi WNW 12.7 mph 17.3 mph N/A   Clear
4:54 PM 78.8 °F 42.8 °F 28% 30.01 in 10.0 mi NW 10.4 mph - N/A   Clear
5:14 PM 78.8 °F 39.2 °F 24% 30.01 in 10.0 mi WNW 11.5 mph - N/A   Clear
5:34 PM 78.8 °F 39.2 °F 24% 30.01 in 10.0 mi WNW 10.4 mph 16.1 mph N/A   Clear
5:54 PM 77.0 °F 41.0 °F 28% 30.01 in 10.0 mi WNW 10.4 mph 16.1 mph N/A   Clear
6:14 PM 77.0 °F 44.6 °F 32% 30.01 in 10.0 mi WNW 10.4 mph 16.1 mph N/A   Clear
6:34 PM 75.2 °F 46.4 °F 36% 30.01 in 10.0 mi WNW 9.2 mph 16.1 mph N/A   Clear
6:54 PM 73.4 °F 46.4 °F 38% 30.02 in 10.0 mi NW 9.2 mph - N/A   Clear
7:14 PM 73.4 °F 48.2 °F 41% 30.02 in 10.0 mi NW 8.1 mph - N/A   Clear
7:34 PM 71.6 °F 48.2 °F 43% 30.03 in 10.0 mi NW 6.9 mph - N/A   Clear
7:54 PM 69.8 °F 48.2 °F 46% 30.03 in 10.0 mi WNW 5.8 mph - N/A   Clear
8:14 PM 66.2 °F 48.2 °F 52% 30.04 in 10.0 mi WNW 4.6 mph - N/A   Clear
8:34 PM 64.4 °F 50.0 °F 59% 30.05 in 10.0 mi NW 3.5 mph - N/A   Clear
8:54 PM 62.6 °F 48.2 °F 59% 30.05 in 10.0 mi WNW 3.5 mph - N/A   Clear
9:14 PM 62.6 °F 48.2 °F 59% 30.06 in 10.0 mi Calm Calm - N/A   Clear
9:34 PM 60.8 °F 48.2 °F 63% 30.07 in 10.0 mi WNW 3.5 mph - N/A   Clear
9:54 PM 62.6 °F 48.2 °F 59% 30.07 in 10.0 mi WNW 3.5 mph - N/A   Clear
10:14 PM 59.0 °F 48.2 °F 67% 30.08 in 10.0 mi Calm Calm - N/A   Clear
10:34 PM 59.0 °F 48.2 °F 67% 30.09 in 10.0 mi Calm Calm - N/A   Clear
10:54 PM 59.0 °F 48.2 °F 67% 30.09 in 10.0 mi Calm Calm - N/A   Clear
11:14 PM 59.0 °F 48.2 °F 67% 30.09 in 10.0 mi West 3.5 mph - N/A   Clear
11:34 PM 59.0 °F 46.4 °F 63% 30.10 in 10.0 mi Calm Calm - N/A   Clear
11:53 PM 57.2 °F 46.4 °F 67% 30.10 in 10.0 mi Calm Calm - N/A   Clear